TimeEDT,TemperatureF,Dew PointF,Humidity,Sea Level PressureIn,VisibilityMPH,Wind Direction,Wind SpeedMPH,Gust SpeedMPH,PrecipitationIn,Events,Conditions,WindDirDegrees,DateUTC
12:51 AM,53.1,42.1,66,30.29,10.0,Variable,4.6,-,N/A,,Clear,0,2012-10-14 04:51:00
1:51 AM,53.1,39.9,61,30.27,10.0,Variable,3.5,-,N/A,,Clear,0,2012-10-14 05:51:00
2:51 AM,53.1,43.0,69,30.25,10.0,SW,5.8,-,N/A,,Clear,230,2012-10-14 06:51:00
3:51 AM,54.0,43.0,66,30.23,10.0,Variable,5.8,-,N/A,,Clear,0,2012-10-14 07:51:00
4:51 AM,54.0,45.0,72,30.21,10.0,WSW,9.2,20.7,N/A,,Clear,240,2012-10-14 08:51:00
5:51 AM,55.0,46.0,72,30.21,10.0,WSW,8.1,20.7,N/A,,Overcast,240,2012-10-14 09:51:00
6:51 AM,54.0,46.9,77,30.21,10.0,SW,9.2,-,N/A,,Overcast,230,2012-10-14 10:51:00
7:51 AM,55.0,46.9,74,30.21,10.0,Variable,5.8,19.6,N/A,,Overcast,0,2012-10-14 11:51:00
8:51 AM,55.9,48.0,75,30.19,10.0,WSW,10.4,19.6,N/A,,Overcast,250,2012-10-14 12:51:00
9:51 AM,57.0,48.0,72,30.20,10.0,WSW,12.7,20.7,N/A,,Overcast,250,2012-10-14 13:51:00
10:51 AM,60.1,48.9,67,30.18,10.0,WSW,6.9,-,N/A,,Overcast,240,2012-10-14 14:51:00
11:51 AM,60.1,48.9,67,30.16,10.0,Variable,5.8,17.3,N/A,,Overcast,0,2012-10-14 15:51:00
12:51 PM,64.9,48.9,56,30.13,10.0,West,6.9,17.3,N/A,,Partly Cloudy,260,2012-10-14 16:51:00
1:51 PM,68.0,48.9,50,30.09,10.0,WSW,6.9,-,N/A,,Clear,250,2012-10-14 17:51:00
2:51 PM,69.1,50.0,51,30.06,10.0,North,-9999.0,-,N/A,,Clear,0,2012-10-14 18:51:00
3:51 PM,69.1,51.1,53,30.04,10.0,Variable,3.5,17.3,N/A,,Clear,0,2012-10-14 19:51:00
4:51 PM,69.1,50.0,51,30.03,10.0,North,-9999.0,-,N/A,,Clear,0,2012-10-14 20:51:00
5:51 PM,68.0,48.9,50,30.01,10.0,Calm,Calm,-,N/A,,Clear,0,2012-10-14 21:51:00
6:51 PM,66.0,48.0,52,30.01,10.0,Variable,4.6,-,N/A,,Clear,0,2012-10-14 22:51:00
7:51 PM,66.0,50.0,56,30.01,10.0,Variable,3.5,-,N/A,,Clear,0,2012-10-14 23:51:00
8:51 PM,64.0,54.0,70,30.01,10.0,Variable,4.6,-,N/A,,Clear,0,2012-10-15 00:51:00
9:51 PM,64.0,54.0,70,30.00,10.0,Variable,5.8,-,N/A,,Clear,0,2012-10-15 01:51:00
10:51 PM,64.0,55.0,73,29.98,10.0,North,-9999.0,-,N/A,,Clear,0,2012-10-15 02:51:00
11:51 PM,63.0,55.9,78,29.96,10.0,Variable,4.6,-,N/A,,Clear,0,2012-10-15 03:51:00